Regional Weather Roundup
Issued by NWS

Home | Current Version | Previous Version | Graphics & Text | Print | Product List | Glossary On
Versions: 1 2 3 4 5 6 7 8 9 10 11 12 13 14 15 16 17 18 19 20 21 22 23 24 25 26 27 28 29 30 31 32 33 34 35 36 37 38 39 40 41 42 43 44 45 46 47 48 49 50
859
ASUS45 KSLC 290610
RWRUT

UTAH REGIONAL WEATHER ROUNDUP
NATIONAL WEATHER SERVICE SALT LAKE CITY UT
1200 AM MDT WED MAR 29 2017

UTZ001>011-023>025-290700-

NORTHERN UTAH

CITY           SKY/WX    TMP DP  RH WIND       PRES   REMARKS
BRIGHAM CITY     N/A     43  28  54 NW8       30.23S
HILL AFB       CLEAR     42  25  51 CALM      30.22R
LOGAN          CLEAR     39  33  79 SE5       30.24R
OGDEN          CLEAR     39  29  67 NW6       30.22R WCI  35
SALT LAKE CITY CLEAR     43  33  68 CALM      30.21S
TOOELE VALLEY  CLEAR     34  32  93 S3        30.23S
WENDOVER       CLEAR     46  25  43 N5        30.24F
HEBER CITY     CLEAR     36  27  69 CALM      30.19S
WEST JORDAN    CLEAR     44  37  77 W9        30.22S

$$

UTZ011>015-024>027-290700-

CENTRAL/NORTHEAST UTAH

CITY           SKY/WX    TMP DP  RH WIND       PRES   REMARKS
PROVO AIRPORT  CLEAR     42  33  70 N9        30.21S
MOAB/CANYONLAN CLEAR     41  31  67 NW12      30.03S
DELTA          CLEAR     36  30  80 E3        30.23S
PRICE          CLEAR     41  25  53 NW15      30.12S
RICHFIELD      CLEAR     36  28  75 N3        30.24S
ROOSEVELT      CLEAR     37  32  81 W7        30.14S WCI  32
VERNAL         CLEAR     41  28  60 E7        30.12F

$$

UTZ013>016-019>022-027-290700-

SOUTHERN UTAH

CITY           SKY/WX    TMP DP  RH WIND       PRES   REMARKS
BRYCE CANYON   CLEAR     30  23  75 NW13      30.17S WCI  20
CEDAR CITY     CLEAR     30  25  81 NW5       30.20S WCI  25
MILFORD        CLEAR     35  27  72 N3        30.22S
ST GEORGE      CLEAR     53  25  33 NE7       30.11R
HANKSVILLE     PTCLDY    46  25  42 NW8       30.10S
KANAB          CLEAR     46  25  42 NW17G23   30.15R
BLANDING       CLEAR     43  30  60 NW15      30.00F

$$

REGIONAL REPORTS     COLORADO/ARIZONA

CITY           SKY/WX    TMP DP  RH WIND       PRES   REMARKS
CRAIG, CO      CLEAR     37  28  70 CALM      30.11R
GRAND JUNCTION CLOUDY    44  34  67 N8        30.03R
RIFLE, CO      CLOUDY    43  32  65 NW10      30.04R
MONTROSE, CO   CLOUDY    42  34  73 NW8       30.01R
CORTEZ, CO     CLOUDY    44  32  62 N14       29.90F
COLORADO CITY    N/A     41  30  65 N9        30.15S
PAGE, AZ       CLEAR     52  24  33 NW8       30.04R
GRAND CANYON   CLEAR     29  23  78 CALM      30.09S
KINGMAN, AZ    CLEAR     50   9  19 NE5       30.08R
FLAGSTAFF, AZ  CLEAR     38  21  50 NW5       30.06S WCI  34

$$

REGIONAL REPORTS    NEVADA/IDAHO/WYOMING

CITY           SKY/WX    TMP DP  RH WIND       PRES   REMARKS
LAS VEGAS, NV  PTCLDY    62  24  23 NE7       30.09R
ELY, NY        CLEAR     34  22  61 NW6       30.26S WCI  29
ELKO, NV       CLEAR     37  28  70 SW3       30.28S
POCATELLO, ID  CLOUDY    39  28  64 S12       30.25R WCI  32
BURLEY, ID     CLEAR     39  28  64 SW12      30.25R WCI  32
FORT BRIDGER,    N/A     32  25  74 W12       30.23  WCI  23
EVANSTON, WY   CLOUDY    31  22  69 N6        30.22S WCI  25
ROCK SPRINGS,  CLOUDY    36  31  82 SW3       30.17S
KEMMERER, WY     N/A     30  21  69 W7        30.20F WCI  23

$$




USA.gov is the U.S. government's official web portal to all federal, state and local government web resources and services.